Regional Weather Roundup
Issued by NWS

Home | Current Version | Previous Version | Text Only | Print | Product List | Glossary On
Versions: 1 2 3 4 5 6 7 8 9 10 11 12 13 14 15 16 17 18 19 20 21 22 23 24 25 26 27
000
ASUS45 KSLC 030910
RWRUT

UTAH REGIONAL WEATHER ROUNDUP
NATIONAL WEATHER SERVICE SALT LAKE CITY UT
300 AM MDT TUE AUG 03 2021

UTZ101>105-107>111-031000-

NORTHERN UTAH

CITY           SKY/WX    TMP DP  RH WIND       PRES   REMARKS
BRIGHAM CITY   CLEAR     62  53  71 CALM      30.25S
HILL AFB       CLEAR     65  57  75 E13       30.25F
LOGAN          CLEAR     58  56  93 N8        30.27F
OGDEN          CLEAR     66  57  72 CALM      30.24F
SALT LAKE CITY PTCLDY    68  60  75 NW6       30.23S
TOOELE VALLEY  CLEAR     63  61  94 S8        30.25F
WENDOVER       CLEAR     74  58  57 CALM      30.25S
HEBER CITY       N/A     55  52  88 CALM      30.32S
WEST JORDAN    CLEAR     64  61  88 CALM      30.27S

$$

UTZ024>027-106-112>120-031000-

CENTRAL/NORTHEAST UTAH

CITY           SKY/WX    TMP DP  RH WIND       PRES   REMARKS
PROVO AIRPORT  CLEAR     62  58  86 N3        30.27S
MOAB/CANYONLAN CLEAR     69  58  67 CALM      30.17S
DELTA          CLEAR     66  54  63 E13       30.26S
MANTI            N/A     59  56  89 CALM      30.32S
PRICE          PTCLDY    69  50  50 CALM      30.28S
RICHFIELD      CLEAR     59  55  88 E2        30.30S
DUCHESNE       SUNNY     64  54  68 SW5       30.29F
VERNAL         MOCLDY    68  57  68 W9        30.26R

$$

UTZ121>131-031000-

SOUTHERN UTAH

CITY           SKY/WX    TMP DP  RH WIND       PRES   REMARKS
BRYCE CANYON   CLEAR     53  46  77 W6        30.45S
CEDAR CITY     CLEAR     65  50  58 CALM      30.31S
MILFORD        CLEAR     64  53  67 NE3       30.27S
ST GEORGE      SUNNY     82  53  36 E3        30.07S
HANKSVILLE     CLEAR     70  61  73 CALM      30.20S
KANAB          CLEAR     73  46  38 N3        30.28S
BLANDING         N/A     63  55  75 NE5       30.34S

$$

REGIONAL REPORTS     COLORADO/ARIZONA

CITY           SKY/WX    TMP DP  RH WIND       PRES   REMARKS
CRAIG, CO      CLOUDY    62  58  86 SW10      30.34R
GRAND JUNCTION PTCLDY    69  54  58 S3        30.21S
RIFLE, CO      PTCLDY    62  56  80 W3        30.28F
MONTROSE, CO   PTCLDY    62  51  67 SE10      30.29F
CORTEZ, CO     CLEAR     56  50  80 E5        30.28F
COLORADO CITY  PTSUNNY   72  50  46 CALM      30.26S
PAGE, AZ       CLEAR     76  53  44 SW3       30.17F
GRAND CANYON   CLEAR     56  51  84 NE7       30.37F
KINGMAN, AZ    CLEAR     76  52  43 E3        30.09S
FLAGSTAFF, AZ  CLEAR     55  47  74 CALM      30.39F

$$

REGIONAL REPORTS    NEVADA/IDAHO/WYOMING

CITY           SKY/WX    TMP DP  RH WIND       PRES   REMARKS
LAS VEGAS, NV  CLEAR     89  48  24 S6        29.96S
ELY, NY        CLEAR     55  47  74 S9        30.38S
ELKO, NV       CLEAR     64  48  56 CALM      30.27F
POCATELLO, ID  CLEAR     57  53  86 NE3       30.29S
BURLEY, ID       N/A    N/A N/A N/A MISG      30.25S
EVANSTON, WY   PTCLDY    53  51  93 SW10      30.39F
ROCK SPRINGS,  PTCLDY    58  52  80 SW13      30.34S
KEMMERER, WY   PTCLDY    52  46  82 NW7       30.40S

$$



USA.gov is the U.S. government's official web portal to all federal, state and local government web resources and services.